Belleville, IL

8:19 AM CDT on March 28, 2017 (GMT -0500)
Scott Air Force Base-Midamerica

Weather History for KBLV - December, 2013

Change the Weather History Date:

Sunday, December 1, 2013

  Actual Average Record
Temperature  
Mean Temperature 45 °F -  
Max Temperature 57 °F 48 °F 75 °F (1970)
Min Temperature 33 °F 31 °F 14 °F (2002)
Degree Days  
Heating Degree Days 20    
Moisture  
Dew Point 37 °F    
Average Humidity 78    
Maximum Humidity 100    
Minimum Humidity 49    
Precipitation  
Precipitation 0.00 in - - ()
Sea Level Pressure  
Sea Level Pressure 30.06 in    
Wind  
Wind Speed 2 mph (NW)    
Max Wind Speed 5 mph    
Max Gust Speed -    
Visibility 10 miles    
Events      
Averages and records for this station are not official NWS values.
T = Trace of Precipitation, MM = Missing Value Source: NWS Daily Summary

Daily Weather History Graph

Daily Weather History Graph

Search for Another Location

Airport or City:

Trip Planner

Search our weather history database for the weather conditions in past years. The results will help you decide how hot, cold, wet, or windy it might be!

Date:

Astronomy

Dec. 01, 2013 Rise Set
Actual Time 6:58 AM CST 4:38 PM CST
Civil Twilight 6:28 AM CST 5:07 PM CST
Nautical Twilight 5:56 AM CST 5:40 PM CST
Astronomical Twilight 5:24 AM CST 6:12 PM CST
Moon 5:17 AM CST (12/1) 3:47 PM CST (12/1)
Length of Visible Light 10h 38m
Length of Day
9h 40m
Waning Crescent, 2% of the Moon is Illuminated
Dec 1
Waning Crescent
Dec 2
New
Dec 9
First Quarter
Dec 17
Full
Dec 25
Last Quarter

Hourly Weather History & Observations

Time (CST) Temp. Windchill Dew Point Humidity Pressure Visibility Wind Dir Wind Speed Gust Speed Precip Events Conditions
12:58 AM 37.4 °F - 33.8 °F 87% 30.13 in 10.0 mi SW 2.3 mph - N/A   Clear
1:58 AM 34.0 °F - 33.4 °F 98% 30.13 in 10.0 mi South 2.3 mph - N/A   Clear
2:58 AM 33.8 °F - 33.8 °F 100% 30.13 in 10.0 mi WNW 2.3 mph - N/A   Overcast
3:58 AM 39.6 °F - 36.7 °F 89% 30.12 in 10.0 mi Variable 1.2 mph - N/A   Overcast
4:58 AM 35.8 °F - 35.4 °F 99% 30.12 in 10.0 mi Calm Calm - N/A   Clear
5:58 AM 35.2 °F - 34.9 °F 99% 30.12 in 10.0 mi West 2.3 mph - N/A   Clear
6:58 AM 33.3 °F - 33.1 °F 99% 30.13 in 10.0 mi SE 2.3 mph - N/A   Clear
7:58 AM 33.6 °F - 33.4 °F 99% 30.14 in 10.0 mi Calm Calm - N/A   Clear
8:58 AM 43.2 °F - 40.8 °F 91% 30.15 in 10.0 mi Calm Calm - N/A   Clear
9:58 AM 50.0 °F - 41.0 °F 71% 30.14 in 10.0 mi Variable 2.3 mph - N/A   Clear
10:58 AM 53.6 °F - 39.2 °F 58% 30.12 in 10.0 mi NW 4.6 mph - N/A   Clear
11:58 AM 55.9 °F - 40.3 °F 56% 30.08 in 10.0 mi West 2.3 mph - N/A   Clear
12:58 PM 57.7 °F - 39.9 °F 51% 30.05 in 6.0 mi Variable 2.3 mph - N/A   Haze
1:58 PM 57.2 °F - 39.2 °F 51% 30.02 in 10.0 mi NW 3.5 mph - N/A   Clear
2:58 PM 57.9 °F - 39.0 °F 49% 30.01 in 10.0 mi Variable 2.3 mph - N/A   Clear
3:58 PM 55.4 °F - 39.2 °F 54% 30.00 in 10.0 mi NNW 3.5 mph - N/A   Clear
4:58 PM 51.3 °F - 37.9 °F 60% 30.00 in 10.0 mi NNE 2.3 mph - N/A   Clear
5:58 PM 42.8 °F - 35.6 °F 76% 30.00 in 10.0 mi NNE 2.3 mph - N/A   Clear
6:58 PM 38.7 °F - 34.0 °F 83% 29.99 in 10.0 mi Calm Calm - N/A   Clear
7:58 PM 39.4 °F - 35.4 °F 86% 29.99 in 10.0 mi Calm Calm - N/A   Overcast
8:58 PM 43.0 °F - 36.0 °F 76% 29.98 in 10.0 mi ENE 2.3 mph - N/A   Overcast
9:58 PM 41.5 °F - 35.6 °F 79% 29.98 in 10.0 mi Calm Calm - N/A   Overcast
10:58 PM 40.6 °F - 34.7 °F 79% 29.95 in 10.0 mi Calm Calm - N/A   Scattered Clouds
11:58 PM 37.2 °F 33.6 °F 34.3 °F 89% 29.92 in 10.0 mi East 4.6 mph - N/A   Scattered Clouds